CXK69 PHNL-PKMJ

Flight info

Callsign CXK69
Flight time 4h 37m
Altitude 34000
Route OPIHI3 CHOKO R584 MAZZA 10N177E EFAHU
Aircraft B737/M-SDE1E2E3FGHIJ2J4J7M3P2RWXY/LU2D1G1

Departure

Time 2026-04-22 03:57
Airport Daniel K. Inouye International Airport (PHNL)

Arrival

Time 2026-04-22 08:34
Airport Marshall Islands International Airport (PKMJ)
Time Latitude Longitude Altitude Speed Heading
2026-04-22 03:34 21.31949 -157.91480 25 ft 0 kts 143°
2026-04-22 03:44 21.31949 -157.91481 23 ft 1 kts 143°
2026-04-22 03:44 21.31967 -157.91495 25 ft 4 kts 143°
2026-04-22 03:44 21.31989 -157.91513 27 ft 4 kts 143°
2026-04-22 03:44 21.32011 -157.91530 24 ft 4 kts 143°
2026-04-22 03:45 21.32032 -157.91547 23 ft 4 kts 143°
2026-04-22 03:45 21.32052 -157.91558 24 ft 4 kts 196°
2026-04-22 03:45 21.32067 -157.91547 24 ft 4 kts 233°
2026-04-22 03:45 21.32074 -157.91536 25 ft 1 kts 233°
2026-04-22 03:47 21.32073 -157.91538 25 ft 2 kts 233°
2026-04-22 03:48 21.32051 -157.91571 26 ft 8 kts 234°
2026-04-22 03:48 21.32004 -157.91628 24 ft 12 kts 219°
2026-04-22 03:48 21.31925 -157.91687 25 ft 15 kts 215°
2026-04-22 03:48 21.31848 -157.91778 24 ft 17 kts 233°
2026-04-22 03:49 21.31774 -157.91882 24 ft 19 kts 232°
2026-04-22 03:49 21.31691 -157.92000 25 ft 21 kts 233°
2026-04-22 03:49 21.31602 -157.92126 24 ft 21 kts 233°
2026-04-22 03:49 21.31515 -157.92250 26 ft 20 kts 232°
2026-04-22 03:50 21.31431 -157.92370 27 ft 20 kts 232°
2026-04-22 03:50 21.31349 -157.92486 25 ft 19 kts 233°
2026-04-22 03:50 21.31262 -157.92577 23 ft 15 kts 180°
2026-04-22 03:50 21.31180 -157.92512 24 ft 15 kts 137°
2026-04-22 03:51 21.31107 -157.92441 23 ft 14 kts 138°
2026-04-22 03:51 21.31037 -157.92374 23 ft 12 kts 139°
2026-04-22 03:51 21.30976 -157.92394 25 ft 11 kts 247°
2026-04-22 03:51 21.30971 -157.92473 23 ft 10 kts 271°
2026-04-22 03:52 21.30971 -157.92549 23 ft 10 kts 269°
2026-04-22 03:52 21.30971 -157.92623 23 ft 10 kts 270°
2026-04-22 03:52 21.30971 -157.92695 23 ft 10 kts 269°
2026-04-22 03:52 21.30970 -157.92768 23 ft 10 kts 270°
2026-04-22 03:53 21.30970 -157.92855 23 ft 14 kts 270°
2026-04-22 03:53 21.30971 -157.92975 23 ft 18 kts 270°
2026-04-22 03:53 21.30971 -157.93123 23 ft 21 kts 270°
2026-04-22 03:53 21.30971 -157.93292 23 ft 24 kts 270°
2026-04-22 03:54 21.30971 -157.93474 23 ft 25 kts 270°
2026-04-22 03:54 21.30971 -157.93659 24 ft 25 kts 270°
2026-04-22 03:54 21.30971 -157.93845 23 ft 25 kts 270°
2026-04-22 03:54 21.30971 -157.94032 24 ft 25 kts 270°
2026-04-22 03:55 21.30971 -157.94211 24 ft 23 kts 270°
2026-04-22 03:55 21.30971 -157.94380 23 ft 22 kts 270°
2026-04-22 03:55 21.30968 -157.94539 24 ft 17 kts 253°
2026-04-22 03:55 21.30862 -157.94571 26 ft 17 kts 180°
2026-04-22 03:56 21.30746 -157.94571 25 ft 17 kts 180°
2026-04-22 03:56 21.30682 -157.94502 25 ft 14 kts 88°
2026-04-22 03:56 21.30682 -157.94483 25 ft 8 kts 90°
2026-04-22 03:56 21.30680 -157.94103 27 ft 92 kts 90°
2026-04-22 03:57 21.30680 -157.93139 18 ft 164 kts 91°
2026-04-22 03:57 21.30698 -157.91769 492 ft 190 kts 90°
2026-04-22 03:57 21.30736 -157.90361 1626 ft 192 kts 88°
2026-04-22 03:57 21.30504 -157.88912 2442 ft 210 kts 113°
2026-04-22 03:58 21.29477 -157.87634 2531 ft 247 kts 148°
2026-04-22 03:58 21.27754 -157.87096 2735 ft 279 kts 179°
2026-04-22 03:58 21.25785 -157.87182 3589 ft 280 kts 182°
2026-04-22 03:58 21.23884 -157.87372 4811 ft 273 kts 196°
2026-04-22 03:59 21.22251 -157.88375 5707 ft 273 kts 224°
2026-04-22 03:59 21.20896 -157.89797 6635 ft 274 kts 225°
2026-04-22 03:59 21.19515 -157.91230 7407 ft 279 kts 224°
2026-04-22 03:59 21.18085 -157.92646 8242 ft 281 kts 223°
2026-04-22 04:00 21.16617 -157.94042 9067 ft 284 kts 222°
2026-04-22 04:00 21.15112 -157.95431 9887 ft 287 kts 221°
2026-04-22 04:00 21.13565 -157.96832 10471 ft 299 kts 221°
2026-04-22 04:00 21.11907 -157.98322 10642 ft 324 kts 221°
2026-04-22 04:01 21.10117 -157.99924 10829 ft 347 kts 221°
2026-04-22 04:01 21.08302 -158.01738 11030 ft 365 kts 232°
2026-04-22 04:01 21.06975 -158.04076 11562 ft 371 kts 247°
2026-04-22 04:01 21.06217 -158.06712 12226 ft 373 kts 261°
2026-04-22 04:02 21.05886 -158.09475 12925 ft 375 kts 265°
2026-04-22 04:02 21.05625 -158.12265 13566 ft 379 kts 265°
2026-04-22 04:02 21.05389 -158.15049 14134 ft 383 kts 266°
2026-04-22 04:02 21.05155 -158.17897 14687 ft 386 kts 266°
2026-04-22 04:03 21.04917 -158.20767 15239 ft 389 kts 266°
2026-04-22 04:03 21.04671 -158.23662 15765 ft 392 kts 266°
2026-04-22 04:03 21.04419 -158.26581 16299 ft 395 kts 266°
2026-04-22 04:03 21.04162 -158.29520 16828 ft 398 kts 266°
2026-04-22 04:04 21.03900 -158.32482 17342 ft 401 kts 266°
2026-04-22 04:04 21.03635 -158.35467 17839 ft 404 kts 266°
2026-04-22 04:04 21.03366 -158.38474 18333 ft 407 kts 266°
2026-04-22 04:04 21.03095 -158.41502 18760 ft 410 kts 266°
2026-04-22 04:05 21.02822 -158.44543 19215 ft 411 kts 266°
2026-04-22 04:05 21.02548 -158.47595 19657 ft 413 kts 265°
2026-04-22 04:05 21.02272 -158.50665 20082 ft 415 kts 265°
2026-04-22 04:05 21.01994 -158.53745 20500 ft 417 kts 265°
2026-04-22 04:06 21.01714 -158.56838 20913 ft 419 kts 265°
2026-04-22 04:06 21.01433 -158.59944 21327 ft 420 kts 265°
2026-04-22 04:06 21.01150 -158.63061 21726 ft 422 kts 265°
2026-04-22 04:06 21.00865 -158.66193 22113 ft 424 kts 265°
2026-04-22 04:07 21.00579 -158.69339 22492 ft 426 kts 265°
2026-04-22 04:07 21.00290 -158.72498 22860 ft 428 kts 265°
2026-04-22 04:07 21.00000 -158.75668 23222 ft 429 kts 265°
2026-04-22 04:07 20.99708 -158.78853 23575 ft 431 kts 265°
2026-04-22 04:08 20.99414 -158.82056 23863 ft 433 kts 265°
2026-04-22 04:08 20.99119 -158.85264 24149 ft 434 kts 265°
2026-04-22 04:08 20.98822 -158.88483 24429 ft 436 kts 265°
2026-04-22 04:08 20.98524 -158.91713 24696 ft 437 kts 265°
2026-04-22 04:09 20.98224 -158.94950 24971 ft 439 kts 265°
2026-04-22 04:09 20.97922 -158.98203 25240 ft 440 kts 265°
2026-04-22 04:09 20.97435 -159.01439 25489 ft 442 kts 257°
2026-04-22 04:09 20.96523 -159.04592 25743 ft 444 kts 253°
2026-04-22 04:10 20.95520 -159.07724 26005 ft 446 kts 252°
2026-04-22 04:10 20.94502 -159.10862 26247 ft 447 kts 252°
2026-04-22 04:10 20.93485 -159.14013 26476 ft 449 kts 252°
2026-04-22 04:10 20.92473 -159.17180 26722 ft 450 kts 252°
2026-04-22 04:11 20.91466 -159.20357 26950 ft 451 kts 253°
2026-04-22 04:11 20.90464 -159.23539 27175 ft 453 kts 253°
2026-04-22 04:11 20.89798 -159.25658 27321 ft 454 kts 253°
2026-04-22 04:11 20.88451 -159.29945 27605 ft 455 kts 253°
2026-04-22 04:12 20.87440 -159.33161 27817 ft 457 kts 253°
2026-04-22 04:12 20.86769 -159.35291 27953 ft 458 kts 253°
2026-04-22 04:12 20.85421 -159.39570 28223 ft 459 kts 253°
2026-04-22 04:12 20.84401 -159.42803 28487 ft 459 kts 253°
2026-04-22 04:13 20.83383 -159.46027 28821 ft 457 kts 253°
2026-04-22 04:13 20.82369 -159.49238 29171 ft 455 kts 253°
2026-04-22 04:13 20.81686 -159.51398 29394 ft 454 kts 253°
2026-04-22 04:13 20.80346 -159.55637 29731 ft 455 kts 254°
2026-04-22 04:14 20.79661 -159.57805 29846 ft 457 kts 254°
2026-04-22 04:14 20.78642 -159.61023 30113 ft 457 kts 254°
2026-04-22 04:14 20.77622 -159.64238 30431 ft 455 kts 254°
2026-04-22 04:14 20.76607 -159.67432 30755 ft 453 kts 254°
2026-04-22 04:15 20.75595 -159.70618 31037 ft 453 kts 254°
2026-04-22 04:15 20.74584 -159.73798 31296 ft 453 kts 254°
2026-04-22 04:15 20.73584 -159.76944 31577 ft 452 kts 254°
2026-04-22 04:15 20.72560 -159.80161 31891 ft 451 kts 254°
2026-04-22 04:16 20.71552 -159.83329 32201 ft 450 kts 254°
2026-04-22 04:16 20.69550 -159.89612 32724 ft 451 kts 254°
2026-04-22 04:16 20.68540 -159.92782 32982 ft 451 kts 254°
2026-04-22 04:17 20.67530 -159.95946 33310 ft 450 kts 254°
2026-04-22 04:17 20.66509 -159.99140 33657 ft 448 kts 254°
2026-04-22 04:17 20.65517 -160.02241 33951 ft 447 kts 254°
2026-04-22 04:18 20.63487 -160.08590 34055 ft 450 kts 254°
2026-04-22 04:18 20.61466 -160.14895 34034 ft 447 kts 254°
2026-04-22 04:19 20.59470 -160.21111 34048 ft 444 kts 254°
2026-04-22 04:19 20.57471 -160.27334 34057 ft 442 kts 254°
2026-04-22 04:20 20.55476 -160.33535 34054 ft 442 kts 254°
2026-04-22 04:20 20.53479 -160.39735 34064 ft 442 kts 254°
2026-04-22 04:21 20.51474 -160.45950 34059 ft 444 kts 254°
2026-04-22 04:21 20.49459 -160.52190 34055 ft 446 kts 254°
2026-04-22 04:22 20.47430 -160.58460 34060 ft 448 kts 254°
2026-04-22 04:22 20.45395 -160.64743 34049 ft 449 kts 254°
2026-04-22 04:23 20.43352 -160.71040 34049 ft 450 kts 254°
2026-04-22 04:23 20.41304 -160.77347 34053 ft 450 kts 254°
2026-04-22 04:24 20.39243 -160.83644 34050 ft 450 kts 254°
2026-04-22 04:24 20.37127 -160.89914 34049 ft 450 kts 252°
2026-04-22 04:25 20.34754 -160.96077 34053 ft 449 kts 250°
2026-04-22 04:25 20.32316 -161.02199 34054 ft 448 kts 250°
2026-04-22 04:26 20.29899 -161.08314 34054 ft 447 kts 251°
2026-04-22 04:26 20.27504 -161.14424 34053 ft 447 kts 251°
2026-04-22 04:27 20.25130 -161.20493 34051 ft 446 kts 251°
2026-04-22 04:27 20.22743 -161.26591 34053 ft 446 kts 251°
2026-04-22 04:28 20.20353 -161.32686 34052 ft 446 kts 251°
2026-04-22 04:28 20.17960 -161.38781 34054 ft 446 kts 251°
2026-04-22 04:29 20.15563 -161.44880 34052 ft 447 kts 251°
2026-04-22 04:29 20.13162 -161.50981 34044 ft 447 kts 251°
2026-04-22 04:30 20.10755 -161.57089 34045 ft 447 kts 251°
2026-04-22 04:30 20.08353 -161.63177 34047 ft 446 kts 251°
2026-04-22 04:31 20.05955 -161.69247 34047 ft 444 kts 251°
2026-04-22 04:31 20.03564 -161.75295 34047 ft 443 kts 251°
2026-04-22 04:32 20.01178 -161.81323 34048 ft 442 kts 251°
2026-04-22 04:32 19.98795 -161.87334 34052 ft 441 kts 251°
2026-04-22 04:33 19.96413 -161.93339 34047 ft 440 kts 250°
2026-04-22 04:33 19.94050 -161.99289 34055 ft 440 kts 250°
2026-04-22 04:34 19.91666 -162.05282 34047 ft 441 kts 250°
2026-04-22 04:34 19.89278 -162.11280 34050 ft 441 kts 250°
2026-04-22 04:35 19.86882 -162.17292 34041 ft 442 kts 250°
2026-04-22 04:35 19.84484 -162.23303 34048 ft 442 kts 250°
2026-04-22 04:36 19.82079 -162.29321 34054 ft 443 kts 250°
2026-04-22 04:36 19.79672 -162.35340 34043 ft 443 kts 250°
2026-04-22 04:37 19.77263 -162.41357 34051 ft 443 kts 250°
2026-04-22 04:37 19.74853 -162.47368 34051 ft 442 kts 250°
2026-04-22 04:38 19.72442 -162.53378 34046 ft 442 kts 250°
2026-04-22 04:38 19.70034 -162.59373 34047 ft 441 kts 250°
2026-04-22 04:39 19.67626 -162.65360 34047 ft 441 kts 250°
2026-04-22 04:39 19.65224 -162.71340 34049 ft 440 kts 250°
2026-04-22 04:40 19.62878 -162.77336 34050 ft 440 kts 251°
2026-04-22 04:40 19.60540 -162.83369 34052 ft 445 kts 250°
2026-04-22 04:41 19.58167 -162.89475 34050 ft 449 kts 250°
2026-04-22 04:41 19.55775 -162.95605 34044 ft 450 kts 251°
2026-04-22 04:42 19.53376 -163.01737 34044 ft 449 kts 251°
2026-04-22 04:42 19.50985 -163.07841 34038 ft 447 kts 251°
2026-04-22 04:43 19.48603 -163.13916 34035 ft 445 kts 251°
2026-04-22 04:43 19.46231 -163.19961 34041 ft 443 kts 251°
2026-04-22 04:44 19.43881 -163.25943 34048 ft 442 kts 251°
2026-04-22 04:44 19.41521 -163.31944 34046 ft 441 kts 251°
2026-04-22 04:45 19.39164 -163.37931 34040 ft 440 kts 251°
2026-04-22 04:45 19.36807 -163.43912 34042 ft 440 kts 251°
2026-04-22 04:46 19.34437 -163.49923 34039 ft 445 kts 250°
2026-04-22 04:46 19.32031 -163.56015 34054 ft 451 kts 250°
2026-04-22 04:47 19.29603 -163.62152 34045 ft 453 kts 250°
2026-04-22 04:47 19.27168 -163.68300 34044 ft 453 kts 250°
2026-04-22 04:48 19.24736 -163.74433 34037 ft 451 kts 250°
2026-04-22 04:48 19.22312 -163.80539 34038 ft 449 kts 250°
2026-04-22 04:49 19.19895 -163.86621 34038 ft 447 kts 250°
2026-04-22 04:49 19.17489 -163.92670 34039 ft 445 kts 250°
2026-04-22 04:50 19.15090 -163.98695 34037 ft 444 kts 250°
2026-04-22 04:50 19.12694 -164.04702 34039 ft 443 kts 250°
2026-04-22 04:51 19.10302 -164.10698 34041 ft 443 kts 250°
2026-04-22 04:51 19.07909 -164.16690 34044 ft 442 kts 250°
2026-04-22 04:52 19.05511 -164.22688 34038 ft 443 kts 250°
2026-04-22 04:52 19.03110 -164.28684 34038 ft 443 kts 250°
2026-04-22 04:53 19.00704 -164.34686 34043 ft 444 kts 250°
2026-04-22 04:53 18.98294 -164.40691 34043 ft 444 kts 250°
2026-04-22 04:54 18.95882 -164.46697 34037 ft 444 kts 250°
2026-04-22 04:54 18.93482 -164.52664 34042 ft 444 kts 250°
2026-04-22 04:55 18.91066 -164.58666 34043 ft 444 kts 250°
2026-04-22 04:55 18.88648 -164.64666 34037 ft 444 kts 250°
2026-04-22 04:56 18.86228 -164.70662 34033 ft 444 kts 250°
2026-04-22 04:56 18.83809 -164.76653 34032 ft 444 kts 250°
2026-04-22 04:57 18.81388 -164.82640 34034 ft 442 kts 250°
2026-04-22 04:57 18.78978 -164.88592 34027 ft 440 kts 250°
2026-04-22 04:58 18.76579 -164.94511 34028 ft 438 kts 250°
2026-04-22 04:58 18.74190 -165.00401 34030 ft 436 kts 250°
2026-04-22 04:59 18.71808 -165.06267 34035 ft 434 kts 250°
2026-04-22 04:59 18.69433 -165.12113 34032 ft 433 kts 250°
2026-04-22 05:00 18.67058 -165.17948 34036 ft 433 kts 250°
2026-04-22 05:00 18.64680 -165.23787 34040 ft 433 kts 250°
2026-04-22 05:01 18.62703 -165.28638 34039 ft 434 kts 250°
2026-04-22 05:01 18.60315 -165.34490 34036 ft 435 kts 250°
2026-04-22 05:02 18.57920 -165.40353 34036 ft 436 kts 250°
2026-04-22 05:02 18.55517 -165.46229 34028 ft 437 kts 249°
2026-04-22 05:03 18.53105 -165.52121 34031 ft 439 kts 249°
2026-04-22 05:03 18.50676 -165.58048 34040 ft 442 kts 249°
2026-04-22 05:04 18.48250 -165.63963 34039 ft 444 kts 249°
2026-04-22 05:04 18.45793 -165.69945 34032 ft 446 kts 249°
2026-04-22 05:05 18.43327 -165.75945 34029 ft 447 kts 249°
2026-04-22 05:05 18.40855 -165.81950 34021 ft 447 kts 249°
2026-04-22 05:06 18.38382 -165.87952 34031 ft 447 kts 249°
2026-04-22 05:06 18.35907 -165.93955 34026 ft 446 kts 249°
2026-04-22 05:07 18.33435 -165.99943 34026 ft 446 kts 249°
2026-04-22 05:07 18.30964 -166.05922 34026 ft 445 kts 249°
2026-04-22 05:08 18.28494 -166.11893 34024 ft 445 kts 249°
2026-04-22 05:08 18.26026 -166.17853 34019 ft 444 kts 249°
2026-04-22 05:09 18.23556 -166.23810 34028 ft 444 kts 249°
2026-04-22 05:09 18.21084 -166.29768 34023 ft 445 kts 249°
2026-04-22 05:10 18.18608 -166.35729 34025 ft 445 kts 249°
2026-04-22 05:10 18.16128 -166.41694 34025 ft 445 kts 249°
2026-04-22 05:11 18.13657 -166.47630 34024 ft 446 kts 249°
2026-04-22 05:11 18.11168 -166.53604 34020 ft 446 kts 249°
2026-04-22 05:12 18.08677 -166.59577 34021 ft 447 kts 249°
2026-04-22 05:12 18.06180 -166.65558 34025 ft 447 kts 249°
2026-04-22 05:13 18.03680 -166.71538 34026 ft 447 kts 249°
2026-04-22 05:13 18.01178 -166.77518 34022 ft 447 kts 249°
2026-04-22 05:14 17.98672 -166.83502 34019 ft 447 kts 248°
2026-04-22 05:14 17.96166 -166.89480 34021 ft 447 kts 248°
2026-04-22 05:15 17.93658 -166.95458 34025 ft 447 kts 248°
2026-04-22 05:15 17.91145 -167.01439 34031 ft 448 kts 248°
2026-04-22 05:16 17.88629 -167.07424 34030 ft 448 kts 248°
2026-04-22 05:16 17.86108 -167.13412 34025 ft 449 kts 248°
2026-04-22 05:17 17.83582 -167.19407 34015 ft 449 kts 248°
2026-04-22 05:17 17.81056 -167.25397 34028 ft 449 kts 248°
2026-04-22 05:18 17.77261 -167.34382 34022 ft 449 kts 248°
2026-04-22 05:18 17.74729 -167.40370 34022 ft 449 kts 248°
2026-04-22 05:19 17.72196 -167.46354 34017 ft 449 kts 248°
2026-04-22 05:19 17.69660 -167.52340 34016 ft 449 kts 248°
2026-04-22 05:20 17.67125 -167.58317 34019 ft 448 kts 248°
2026-04-22 05:20 17.64590 -167.64289 34022 ft 448 kts 248°
2026-04-22 05:21 17.62054 -167.70258 34023 ft 448 kts 248°
2026-04-22 05:21 17.59515 -167.76228 34016 ft 449 kts 248°
2026-04-22 05:22 17.56973 -167.82198 34029 ft 449 kts 248°
2026-04-22 05:22 17.54425 -167.88177 34026 ft 449 kts 248°
2026-04-22 05:23 17.51877 -167.94150 34025 ft 449 kts 248°
2026-04-22 05:23 17.49326 -168.00121 34019 ft 449 kts 248°
2026-04-22 05:24 17.46774 -168.06094 34020 ft 449 kts 248°
2026-04-22 05:24 17.44218 -168.12067 34016 ft 450 kts 248°
2026-04-22 05:25 17.41660 -168.18040 34015 ft 450 kts 248°
2026-04-22 05:25 17.39117 -168.23971 34007 ft 450 kts 248°
2026-04-22 05:26 17.36553 -168.29945 34013 ft 450 kts 248°
2026-04-22 05:26 17.33984 -168.35927 34014 ft 451 kts 248°
2026-04-22 05:27 17.31411 -168.41911 34016 ft 451 kts 248°
2026-04-22 05:27 17.28834 -168.47899 34016 ft 452 kts 248°
2026-04-22 05:28 17.26253 -168.53891 34013 ft 452 kts 248°
2026-04-22 05:28 17.23668 -168.59884 34016 ft 452 kts 248°
2026-04-22 05:29 17.21079 -168.65884 34014 ft 452 kts 248°
2026-04-22 05:29 17.18490 -168.71876 34011 ft 452 kts 247°
2026-04-22 05:30 17.15900 -168.77864 34013 ft 452 kts 247°
2026-04-22 05:30 17.13309 -168.83850 34015 ft 452 kts 247°
2026-04-22 05:31 17.10717 -168.89832 34015 ft 452 kts 247°
2026-04-22 05:31 17.08123 -168.95813 34006 ft 452 kts 247°
2026-04-22 05:32 17.05524 -169.01801 34020 ft 452 kts 247°
2026-04-22 05:32 17.02921 -169.07790 34016 ft 453 kts 247°
2026-04-22 05:33 17.00313 -169.13787 34015 ft 454 kts 247°
2026-04-22 05:33 16.97700 -169.19788 34015 ft 454 kts 247°
2026-04-22 05:34 16.95083 -169.25794 34014 ft 455 kts 247°
2026-04-22 05:34 16.92462 -169.31803 34013 ft 455 kts 247°
2026-04-22 05:35 16.89839 -169.37811 34012 ft 455 kts 247°
2026-04-22 05:35 16.87212 -169.43823 34008 ft 455 kts 247°
2026-04-22 05:36 16.84603 -169.49785 34014 ft 454 kts 247°
2026-04-22 05:36 16.81977 -169.55784 34013 ft 454 kts 247°
2026-04-22 05:37 16.79350 -169.61777 34013 ft 454 kts 247°
2026-04-22 05:37 16.76723 -169.67767 34005 ft 454 kts 247°
2026-04-22 05:38 16.74094 -169.73755 34013 ft 454 kts 247°
2026-04-22 05:38 16.71459 -169.79751 34010 ft 454 kts 247°
2026-04-22 05:39 16.68822 -169.85744 34011 ft 455 kts 247°
2026-04-22 05:39 16.66182 -169.91742 34012 ft 455 kts 247°
2026-04-22 05:40 16.63537 -169.97743 34012 ft 456 kts 247°
2026-04-22 05:40 16.60889 -170.03746 34008 ft 456 kts 247°
2026-04-22 05:41 16.58235 -170.09757 34009 ft 456 kts 247°
2026-04-22 05:41 16.55581 -170.15763 34007 ft 456 kts 247°
2026-04-22 05:42 16.52923 -170.21771 34007 ft 457 kts 247°
2026-04-22 05:42 16.50262 -170.27781 34009 ft 457 kts 247°
2026-04-22 05:43 16.47598 -170.33792 34006 ft 457 kts 247°
2026-04-22 05:43 16.44929 -170.39810 34004 ft 458 kts 247°
2026-04-22 05:44 16.42254 -170.45836 34007 ft 458 kts 247°
2026-04-22 05:44 16.39577 -170.51860 34004 ft 459 kts 247°
2026-04-22 05:45 16.36897 -170.57886 34008 ft 459 kts 246°
2026-04-22 05:45 16.34216 -170.63909 34003 ft 458 kts 246°
2026-04-22 05:46 16.31534 -170.69927 34002 ft 458 kts 246°
2026-04-22 05:46 16.28853 -170.75939 34002 ft 458 kts 246°
2026-04-22 05:47 16.26173 -170.81943 34001 ft 457 kts 246°
2026-04-22 05:47 16.23492 -170.87942 34001 ft 457 kts 246°
2026-04-22 05:48 16.21267 -170.92917 34007 ft 456 kts 246°
2026-04-22 05:48 16.18595 -170.98889 34001 ft 455 kts 246°
2026-04-22 05:49 16.15927 -171.04845 33998 ft 454 kts 246°
2026-04-22 05:49 16.13259 -171.10797 34000 ft 453 kts 246°
2026-04-22 05:50 16.10593 -171.16737 34008 ft 454 kts 246°
2026-04-22 05:50 16.07923 -171.22682 34006 ft 454 kts 246°
2026-04-22 05:51 16.05248 -171.28634 34004 ft 455 kts 246°
2026-04-22 05:51 16.02568 -171.34590 34002 ft 455 kts 246°
2026-04-22 05:52 15.99885 -171.40549 34003 ft 455 kts 246°
2026-04-22 05:52 15.97198 -171.46512 34001 ft 455 kts 246°
2026-04-22 05:53 15.94512 -171.52470 34002 ft 455 kts 246°
2026-04-22 05:53 15.91821 -171.58376 34003 ft 455 kts 245°
2026-04-22 05:54 15.89024 -171.64277 33999 ft 455 kts 245°
2026-04-22 05:54 15.86213 -171.70164 34001 ft 455 kts 245°
2026-04-22 05:55 15.83410 -171.76052 33995 ft 455 kts 245°
2026-04-22 05:55 15.80609 -171.81949 34002 ft 456 kts 245°
2026-04-22 05:56 15.77803 -171.87860 34007 ft 457 kts 245°
2026-04-22 05:56 15.74991 -171.93778 34006 ft 458 kts 245°
2026-04-22 05:57 15.72171 -171.99706 34001 ft 458 kts 245°
2026-04-22 05:57 15.69346 -172.05640 34002 ft 459 kts 245°
2026-04-22 05:58 15.66517 -172.11579 34000 ft 459 kts 245°
2026-04-22 05:58 15.63684 -172.17519 33999 ft 459 kts 245°
2026-04-22 05:59 15.60847 -172.23462 34000 ft 459 kts 245°
2026-04-22 05:59 15.58014 -172.29394 33998 ft 459 kts 245°
2026-04-22 06:00 15.55181 -172.35320 34002 ft 458 kts 245°
2026-04-22 06:00 15.52349 -172.41239 33994 ft 458 kts 245°
2026-04-22 06:01 15.49515 -172.47156 33989 ft 458 kts 245°
2026-04-22 06:01 15.46677 -172.53078 33998 ft 458 kts 245°
2026-04-22 06:02 15.43837 -172.58998 33998 ft 459 kts 245°
2026-04-22 06:02 15.41012 -172.64884 33995 ft 459 kts 245°
2026-04-22 06:03 15.38163 -172.70814 33996 ft 460 kts 245°
2026-04-22 06:03 15.35309 -172.76749 33994 ft 460 kts 245°
2026-04-22 06:04 15.32453 -172.82684 33991 ft 460 kts 245°
2026-04-22 06:04 15.29595 -172.88618 33994 ft 460 kts 244°
2026-04-22 06:05 15.26734 -172.94553 33992 ft 460 kts 245°
2026-04-22 06:05 15.23876 -173.00476 33988 ft 460 kts 244°
2026-04-22 06:06 15.21019 -173.06393 33993 ft 459 kts 244°
2026-04-22 06:06 15.18162 -173.12305 33991 ft 459 kts 245°
2026-04-22 06:07 15.15304 -173.18213 33997 ft 459 kts 244°
2026-04-22 06:07 15.12447 -173.24114 33994 ft 458 kts 244°
2026-04-22 06:08 15.09590 -173.30016 33993 ft 458 kts 244°
2026-04-22 06:08 15.06735 -173.35908 33994 ft 458 kts 245°
2026-04-22 06:09 15.03896 -173.41757 33993 ft 458 kts 244°
2026-04-22 06:09 15.01019 -173.47682 33989 ft 458 kts 244°
2026-04-22 06:10 14.98161 -173.53567 33983 ft 458 kts 244°
2026-04-22 06:10 14.95317 -173.59413 33990 ft 458 kts 244°
2026-04-22 06:11 14.92450 -173.65302 33985 ft 458 kts 244°
2026-04-22 06:11 14.89584 -173.71186 33988 ft 458 kts 244°
2026-04-22 06:12 14.86717 -173.77068 33985 ft 458 kts 244°
2026-04-22 06:12 14.83847 -173.82951 33982 ft 459 kts 244°
2026-04-22 06:13 14.80974 -173.88835 33989 ft 459 kts 244°
2026-04-22 06:13 14.78099 -173.94720 33991 ft 459 kts 244°
2026-04-22 06:14 14.75216 -174.00614 33994 ft 459 kts 244°
2026-04-22 06:14 14.72334 -174.06503 33997 ft 459 kts 244°
2026-04-22 06:15 14.69450 -174.12392 33994 ft 459 kts 244°
2026-04-22 06:15 14.66565 -174.18278 33988 ft 459 kts 244°
2026-04-22 06:16 14.63679 -174.24161 33993 ft 459 kts 244°
2026-04-22 06:16 14.60792 -174.30041 33988 ft 459 kts 244°
2026-04-22 06:17 14.57903 -174.35922 33980 ft 459 kts 243°
2026-04-22 06:17 14.55016 -174.41793 33979 ft 459 kts 243°
2026-04-22 06:18 14.52128 -174.47662 33978 ft 459 kts 243°
2026-04-22 06:18 14.49259 -174.53489 33984 ft 459 kts 243°
2026-04-22 06:19 14.46367 -174.59357 33975 ft 459 kts 243°
2026-04-22 06:19 14.43452 -174.65267 33974 ft 460 kts 243°
2026-04-22 06:20 14.40573 -174.71100 33969 ft 460 kts 243°
2026-04-22 06:20 14.37670 -174.76978 33975 ft 460 kts 243°
2026-04-22 06:21 14.34767 -174.82851 33979 ft 460 kts 243°
2026-04-22 06:21 14.31862 -174.88723 33980 ft 460 kts 243°
2026-04-22 06:22 14.28956 -174.94592 33979 ft 460 kts 243°
2026-04-22 06:22 14.26049 -175.00460 33987 ft 459 kts 243°
2026-04-22 06:23 14.23139 -175.06329 33984 ft 459 kts 243°
2026-04-22 06:23 14.20231 -175.12191 33980 ft 459 kts 242°
2026-04-22 06:24 14.15884 -175.20943 33972 ft 460 kts 242°
2026-04-22 06:25 14.12968 -175.26810 33986 ft 460 kts 242°
2026-04-22 06:25 14.10045 -175.32684 33988 ft 461 kts 242°
2026-04-22 06:26 14.07117 -175.38566 33986 ft 462 kts 242°
2026-04-22 06:26 14.04185 -175.44452 33979 ft 462 kts 242°
2026-04-22 06:27 14.01247 -175.50343 33983 ft 463 kts 242°
2026-04-22 06:27 13.98304 -175.56245 33981 ft 463 kts 241°
2026-04-22 06:28 13.95360 -175.62141 33976 ft 463 kts 242°
2026-04-22 06:28 13.92414 -175.68036 33992 ft 463 kts 242°
2026-04-22 06:29 13.89467 -175.73932 33980 ft 463 kts 242°
2026-04-22 06:29 13.86517 -175.79825 33969 ft 463 kts 242°
2026-04-22 06:30 13.83567 -175.85715 33971 ft 463 kts 241°
2026-04-22 06:30 13.80617 -175.91605 33972 ft 463 kts 241°
2026-04-22 06:31 13.77666 -175.97483 33972 ft 463 kts 242°
2026-04-22 06:31 13.74713 -176.03363 33983 ft 463 kts 241°
2026-04-22 06:32 13.71759 -176.09244 33971 ft 463 kts 243°
2026-04-22 06:32 13.68803 -176.15126 33985 ft 463 kts 240°
2026-04-22 06:33 13.65845 -176.21008 33986 ft 463 kts 242°
2026-04-22 06:33 13.62882 -176.26900 33974 ft 464 kts 242°
2026-04-22 06:34 13.59916 -176.32788 33985 ft 464 kts 241°
2026-04-22 06:34 13.56948 -176.38677 33967 ft 464 kts 242°
2026-04-22 06:35 13.53979 -176.44562 33980 ft 464 kts 240°
2026-04-22 06:35 13.51011 -176.50443 33985 ft 463 kts 242°
2026-04-22 06:36 13.48059 -176.56283 33972 ft 464 kts 241°
2026-04-22 06:36 13.45070 -176.62193 33971 ft 463 kts 242°
2026-04-22 06:37 13.42128 -176.68013 33968 ft 461 kts 242°
2026-04-22 06:37 13.39176 -176.73846 33966 ft 460 kts 242°
2026-04-22 06:38 13.36710 -176.78714 33969 ft 458 kts 242°
2026-04-22 06:38 13.33771 -176.84512 33972 ft 457 kts 242°
2026-04-22 06:39 13.30835 -176.90301 33971 ft 456 kts 242°
2026-04-22 06:39 13.27924 -176.96035 33969 ft 456 kts 242°
2026-04-22 06:40 13.24995 -177.01802 33973 ft 456 kts 242°
2026-04-22 06:40 13.22064 -177.07569 33967 ft 456 kts 242°
2026-04-22 06:41 13.19128 -177.13343 33966 ft 457 kts 242°
2026-04-22 06:41 13.16184 -177.19128 33966 ft 458 kts 242°
2026-04-22 06:42 13.13233 -177.24922 33963 ft 459 kts 242°
2026-04-22 06:42 13.10274 -177.30728 33964 ft 459 kts 242°
2026-04-22 06:43 13.07314 -177.36532 33971 ft 459 kts 242°
2026-04-22 06:43 13.04353 -177.42334 33963 ft 459 kts 242°
2026-04-22 06:44 13.01393 -177.48131 33970 ft 458 kts 242°
2026-04-22 06:44 12.98435 -177.53919 33969 ft 458 kts 242°
2026-04-22 06:45 12.95477 -177.59702 33974 ft 458 kts 242°
2026-04-22 06:45 12.92521 -177.65481 33971 ft 457 kts 242°
2026-04-22 06:46 12.89561 -177.71261 33970 ft 457 kts 242°
2026-04-22 06:46 12.86601 -177.77037 33959 ft 458 kts 242°
2026-04-22 06:47 12.83638 -177.82817 33951 ft 458 kts 242°
2026-04-22 06:47 12.80671 -177.88599 33955 ft 459 kts 242°
2026-04-22 06:48 12.77701 -177.94385 33963 ft 459 kts 242°
2026-04-22 06:48 12.74747 -178.00135 33961 ft 459 kts 242°
2026-04-22 06:49 12.71774 -178.05917 33957 ft 459 kts 242°
2026-04-22 06:49 12.68801 -178.11697 33968 ft 458 kts 242°
2026-04-22 06:50 12.65833 -178.17464 33964 ft 457 kts 242°
2026-04-22 06:50 12.62865 -178.23224 33965 ft 457 kts 242°
2026-04-22 06:51 12.59899 -178.28981 33964 ft 457 kts 242°
2026-04-22 06:51 12.56911 -178.34774 33963 ft 457 kts 242°
2026-04-22 06:52 12.53941 -178.40529 33955 ft 458 kts 242°
2026-04-22 06:52 12.50988 -178.46248 33952 ft 458 kts 242°
2026-04-22 06:53 12.48009 -178.52012 33958 ft 458 kts 242°
2026-04-22 06:53 12.45030 -178.57773 33952 ft 458 kts 242°
2026-04-22 06:54 12.42049 -178.63536 33955 ft 459 kts 242°
2026-04-22 06:54 12.39065 -178.69298 33964 ft 458 kts 242°
2026-04-22 06:55 12.36085 -178.75050 33947 ft 457 kts 242°
2026-04-22 06:55 12.33110 -178.80790 33951 ft 456 kts 242°
2026-04-22 06:56 12.30136 -178.86523 33959 ft 455 kts 242°
2026-04-22 06:56 12.27168 -178.92240 33954 ft 455 kts 242°
2026-04-22 06:57 12.24204 -178.97948 33950 ft 454 kts 242°
2026-04-22 06:57 12.21243 -179.03647 33951 ft 454 kts 242°
2026-04-22 06:58 12.18283 -179.09338 33951 ft 453 kts 242°
2026-04-22 06:58 12.15324 -179.15024 33947 ft 453 kts 242°
2026-04-22 06:59 12.12385 -179.20671 33947 ft 453 kts 242°
2026-04-22 06:59 12.09421 -179.26360 33955 ft 453 kts 242°
2026-04-22 07:00 12.06458 -179.32045 33952 ft 453 kts 242°
2026-04-22 07:00 12.03492 -179.37731 33960 ft 453 kts 242°
2026-04-22 07:01 12.00531 -179.43403 33949 ft 452 kts 242°
2026-04-22 07:01 11.97580 -179.49055 33948 ft 450 kts 242°
2026-04-22 07:02 11.94635 -179.54690 33949 ft 449 kts 242°
2026-04-22 07:02 11.91701 -179.60302 33950 ft 447 kts 242°
2026-04-22 07:03 11.88774 -179.65897 33948 ft 446 kts 242°
2026-04-22 07:03 11.85852 -179.71479 33947 ft 445 kts 242°
2026-04-22 07:04 11.82933 -179.77052 33950 ft 445 kts 242°
2026-04-22 07:04 11.80036 -179.82582 33950 ft 445 kts 242°
2026-04-22 07:05 11.77118 -179.88146 33954 ft 445 kts 242°
2026-04-22 07:05 11.74196 -179.93718 33950 ft 445 kts 242°
2026-04-22 07:06 11.71270 -179.99291 33952 ft 446 kts 242°
2026-04-22 07:06 11.68251 179.95171 33945 ft 447 kts 240°
2026-04-22 07:07 11.65132 179.89672 33953 ft 448 kts 240°
2026-04-22 07:07 11.62003 179.84159 33947 ft 450 kts 240°
2026-04-22 07:08 11.58882 179.78629 33940 ft 450 kts 240°
2026-04-22 07:08 11.55763 179.73090 33944 ft 451 kts 240°
2026-04-22 07:09 11.52643 179.67547 33947 ft 451 kts 240°
2026-04-22 07:09 11.49520 179.62002 33944 ft 450 kts 240°
2026-04-22 07:10 11.46402 179.56471 33944 ft 450 kts 240°
2026-04-22 07:10 11.43289 179.50950 33939 ft 449 kts 240°
2026-04-22 07:11 11.40180 179.45442 33942 ft 448 kts 240°
2026-04-22 07:11 11.37077 179.39946 33942 ft 447 kts 240°
2026-04-22 07:12 11.33973 179.34453 33942 ft 447 kts 240°
2026-04-22 07:12 11.30877 179.28974 33935 ft 446 kts 240°
2026-04-22 07:13 11.27787 179.23511 33943 ft 445 kts 240°
2026-04-22 07:13 11.24703 179.18062 33941 ft 444 kts 240°
2026-04-22 07:14 11.21626 179.12626 33939 ft 442 kts 240°
2026-04-22 07:14 11.18555 179.07205 33939 ft 442 kts 240°
2026-04-22 07:15 11.15485 179.01789 33938 ft 441 kts 240°
2026-04-22 07:15 11.12422 178.96388 33938 ft 440 kts 240°
2026-04-22 07:16 11.09362 178.90993 33939 ft 440 kts 240°
2026-04-22 07:16 11.06301 178.85601 33941 ft 440 kts 240°
2026-04-22 07:17 11.03237 178.80206 33943 ft 441 kts 239°
2026-04-22 07:17 11.00166 178.74802 33936 ft 442 kts 239°
2026-04-22 07:18 10.97087 178.69387 33936 ft 443 kts 239°
2026-04-22 07:18 10.94019 178.63993 33938 ft 443 kts 239°
2026-04-22 07:19 10.90931 178.58568 33937 ft 443 kts 239°
2026-04-22 07:19 10.87845 178.53149 33932 ft 442 kts 239°
2026-04-22 07:20 10.84764 178.47742 33933 ft 441 kts 239°
2026-04-22 07:20 10.81687 178.42343 33933 ft 441 kts 239°
2026-04-22 07:21 10.78613 178.36952 33937 ft 440 kts 239°
2026-04-22 07:21 10.75540 178.31567 33933 ft 440 kts 239°
2026-04-22 07:22 10.72465 178.26180 33935 ft 440 kts 239°
2026-04-22 07:22 10.69393 178.20803 33935 ft 440 kts 239°
2026-04-22 07:23 10.66321 178.15427 33929 ft 440 kts 239°
2026-04-22 07:23 10.63247 178.10051 33933 ft 440 kts 239°
2026-04-22 07:24 10.60170 178.04670 33933 ft 441 kts 239°
2026-04-22 07:24 10.57086 177.99282 33932 ft 441 kts 239°
2026-04-22 07:25 10.54517 177.94796 33931 ft 442 kts 239°
2026-04-22 07:25 10.50924 177.88524 33932 ft 442 kts 239°
2026-04-22 07:26 10.47831 177.83128 33929 ft 442 kts 239°
2026-04-22 07:26 10.44737 177.77731 33928 ft 442 kts 239°
2026-04-22 07:27 10.42165 177.73249 33931 ft 442 kts 239°
2026-04-22 07:27 10.39067 177.67851 33925 ft 442 kts 239°
2026-04-22 07:28 10.34422 177.59763 33929 ft 442 kts 239°
2026-04-22 07:28 10.31324 177.54372 33929 ft 442 kts 239°
2026-04-22 07:29 10.28225 177.48981 33926 ft 442 kts 239°
2026-04-22 07:29 10.25124 177.43591 33926 ft 442 kts 239°
2026-04-22 07:30 10.22020 177.38197 33926 ft 442 kts 239°
2026-04-22 07:30 10.18919 177.32811 33926 ft 442 kts 239°
2026-04-22 07:31 10.15815 177.27423 33925 ft 442 kts 239°
2026-04-22 07:31 10.12709 177.22032 33924 ft 443 kts 239°
2026-04-22 07:32 10.09600 177.16640 33920 ft 443 kts 239°
2026-04-22 07:32 10.06490 177.11248 33920 ft 443 kts 239°
2026-04-22 07:33 10.03396 177.05884 33925 ft 443 kts 239°
2026-04-22 07:33 10.00280 177.00488 33924 ft 443 kts 239°
2026-04-22 07:34 9.97389 176.94965 33920 ft 443 kts 243°
2026-04-22 07:34 9.94636 176.89366 33921 ft 444 kts 243°
2026-04-22 07:35 9.91880 176.83766 33924 ft 444 kts 243°
2026-04-22 07:35 9.89103 176.78175 33923 ft 444 kts 242°
2026-04-22 07:36 9.86314 176.72588 33924 ft 444 kts 242°
2026-04-22 07:36 9.83521 176.67001 33923 ft 444 kts 242°
2026-04-22 07:37 9.80725 176.61411 33916 ft 444 kts 242°
2026-04-22 07:37 9.77930 176.55826 33922 ft 444 kts 242°
2026-04-22 07:38 9.75134 176.50240 33915 ft 444 kts 242°
2026-04-22 07:38 9.72335 176.44653 33919 ft 445 kts 242°
2026-04-22 07:39 9.69535 176.39064 33926 ft 445 kts 242°
2026-04-22 07:39 9.66729 176.33468 33924 ft 445 kts 242°
2026-04-22 07:40 9.63926 176.27879 33918 ft 445 kts 242°
2026-04-22 07:40 9.61122 176.22291 33919 ft 445 kts 242°
2026-04-22 07:41 9.58316 176.16703 33915 ft 445 kts 242°
2026-04-22 07:41 9.55508 176.11113 33919 ft 445 kts 242°
2026-04-22 07:42 9.52733 176.05591 33919 ft 445 kts 242°
2026-04-22 07:42 9.49923 176.00001 33920 ft 445 kts 242°
2026-04-22 07:43 9.47110 175.94409 33919 ft 446 kts 242°
2026-04-22 07:43 9.44292 175.88811 33919 ft 446 kts 242°
2026-04-22 07:44 9.41476 175.83217 33916 ft 446 kts 242°
2026-04-22 07:44 9.38658 175.77624 33915 ft 446 kts 242°
2026-04-22 07:45 9.35832 175.72017 33924 ft 447 kts 242°
2026-04-22 07:45 9.33038 175.66475 33917 ft 447 kts 242°
2026-04-22 07:46 9.30205 175.60860 33918 ft 448 kts 242°
2026-04-22 07:46 9.27389 175.55280 33918 ft 448 kts 242°
2026-04-22 07:47 9.24551 175.49660 33917 ft 448 kts 242°
2026-04-22 07:47 9.21715 175.44046 33917 ft 448 kts 242°
2026-04-22 07:48 9.18874 175.38424 33914 ft 449 kts 242°
2026-04-22 07:48 9.16030 175.32801 33918 ft 449 kts 242°
2026-04-22 07:49 9.13187 175.27180 33918 ft 449 kts 242°
2026-04-22 07:49 9.10342 175.21558 33918 ft 449 kts 242°
2026-04-22 07:50 9.07493 175.15932 33921 ft 449 kts 242°
2026-04-22 07:50 9.04643 175.10307 33912 ft 449 kts 242°
2026-04-22 07:51 9.01793 175.04683 33919 ft 449 kts 242°
2026-04-22 07:51 8.98940 174.99055 33921 ft 450 kts 243°
2026-04-22 07:52 8.96082 174.93422 33916 ft 450 kts 243°
2026-04-22 07:52 8.93220 174.87783 33921 ft 451 kts 243°
2026-04-22 07:53 8.90352 174.82133 33917 ft 451 kts 242°
2026-04-22 07:53 8.87503 174.76526 33919 ft 451 kts 242°
2026-04-22 07:54 8.84634 174.70879 33921 ft 452 kts 242°
2026-04-22 07:54 8.81763 174.65234 33921 ft 452 kts 242°
2026-04-22 07:55 8.78892 174.59589 33918 ft 452 kts 242°
2026-04-22 07:55 8.76016 174.53937 33926 ft 452 kts 242°
2026-04-22 07:56 8.73139 174.48286 33920 ft 452 kts 242°
2026-04-22 07:56 8.70261 174.42635 33916 ft 452 kts 242°
2026-04-22 07:57 8.67383 174.36986 33917 ft 452 kts 242°
2026-04-22 07:57 8.64504 174.31340 33921 ft 452 kts 242°
2026-04-22 07:58 8.61624 174.25692 33923 ft 452 kts 242°
2026-04-22 07:58 8.58742 174.20044 33919 ft 453 kts 242°
2026-04-22 07:59 8.55856 174.14390 33931 ft 453 kts 242°
2026-04-22 07:59 8.52963 174.08726 33913 ft 454 kts 242°
2026-04-22 08:00 8.50071 174.03065 33933 ft 453 kts 242°
2026-04-22 08:00 8.47178 173.97404 33924 ft 453 kts 242°
2026-04-22 08:01 8.44285 173.91746 33913 ft 454 kts 242°
2026-04-22 08:01 8.41389 173.86085 33929 ft 454 kts 242°
2026-04-22 08:02 8.38490 173.80421 33922 ft 454 kts 242°
2026-04-22 08:02 8.35586 173.74749 33933 ft 455 kts 242°
2026-04-22 08:03 8.32678 173.69071 33922 ft 455 kts 242°
2026-04-22 08:03 8.29767 173.63390 33931 ft 455 kts 242°
2026-04-22 08:04 8.26858 173.57717 33923 ft 455 kts 242°
2026-04-22 08:04 8.23969 173.52082 33910 ft 455 kts 242°
2026-04-22 08:05 8.21061 173.46415 33926 ft 455 kts 242°
2026-04-22 08:05 8.18151 173.40746 33921 ft 455 kts 242°
2026-04-22 08:06 8.15235 173.35068 33930 ft 456 kts 242°
2026-04-22 08:06 8.12317 173.29388 33927 ft 456 kts 242°
2026-04-22 08:07 8.09395 173.23701 33932 ft 456 kts 242°
2026-04-22 08:07 8.06470 173.18013 33919 ft 457 kts 242°
2026-04-22 08:08 8.03540 173.12318 33915 ft 457 kts 241°
2026-04-22 08:08 8.00609 173.06622 33927 ft 458 kts 241°
2026-04-22 08:09 7.97670 173.00913 33927 ft 459 kts 242°
2026-04-22 08:09 7.94724 172.95190 33931 ft 460 kts 241°
2026-04-22 08:10 7.91769 172.89457 33919 ft 461 kts 242°
2026-04-22 08:10 7.88814 172.83728 33928 ft 460 kts 242°
2026-04-22 08:11 7.85860 172.78000 33925 ft 460 kts 242°
2026-04-22 08:11 7.82910 172.72279 33927 ft 460 kts 241°
2026-04-22 08:12 7.79962 172.66563 33928 ft 459 kts 241°
2026-04-22 08:12 7.77015 172.60855 33919 ft 459 kts 242°
2026-04-22 08:13 7.74563 172.56109 33928 ft 459 kts 242°
2026-04-22 08:13 7.71617 172.50409 33920 ft 459 kts 242°
2026-04-22 08:14 7.68194 172.43784 33927 ft 458 kts 242°
2026-04-22 08:14 7.65229 172.38049 33091 ft 468 kts 241°
2026-04-22 08:15 7.64217 172.36092 32619 ft 466 kts 241°
2026-04-22 08:15 7.62718 172.33196 31769 ft 467 kts 242°
2026-04-22 08:15 7.61216 172.30295 30901 ft 468 kts 242°
2026-04-22 08:15 7.59708 172.27381 29959 ft 470 kts 242°
2026-04-22 08:16 7.58191 172.24450 29011 ft 469 kts 242°
2026-04-22 08:16 7.56693 172.21555 28289 ft 463 kts 242°
2026-04-22 08:16 7.55212 172.18693 27580 ft 458 kts 241°
2026-04-22 08:16 7.53749 172.15868 26898 ft 452 kts 241°
2026-04-22 08:17 7.52303 172.13075 26211 ft 447 kts 242°
2026-04-22 08:17 7.50870 172.10309 25530 ft 443 kts 241°
2026-04-22 08:17 7.49449 172.07567 24842 ft 440 kts 241°
2026-04-22 08:17 7.48037 172.04845 24159 ft 437 kts 242°
2026-04-22 08:18 7.46634 172.02140 23468 ft 435 kts 241°
2026-04-22 08:18 7.45239 171.99449 22676 ft 432 kts 240°
2026-04-22 08:18 7.43856 171.96782 21977 ft 427 kts 241°
2026-04-22 08:18 7.42487 171.94142 21292 ft 423 kts 242°
2026-04-22 08:19 7.41129 171.91527 20610 ft 420 kts 242°
2026-04-22 08:19 7.39779 171.88924 19922 ft 417 kts 242°
2026-04-22 08:19 7.38457 171.86375 19250 ft 415 kts 242°
2026-04-22 08:19 7.37123 171.83804 18580 ft 413 kts 242°
2026-04-22 08:20 7.35775 171.81208 17849 ft 412 kts 242°
2026-04-22 08:20 7.34468 171.78689 17120 ft 410 kts 242°
2026-04-22 08:20 7.33152 171.76153 16426 ft 407 kts 242°
2026-04-22 08:20 7.31827 171.73602 15748 ft 404 kts 242°
2026-04-22 08:21 7.30608 171.71108 15002 ft 403 kts 247°
2026-04-22 08:21 7.29642 171.68452 14160 ft 400 kts 252°
2026-04-22 08:21 7.28828 171.65811 13418 ft 389 kts 254°
2026-04-22 08:21 7.28071 171.63240 12726 ft 377 kts 254°
2026-04-22 08:22 7.27331 171.60751 12110 ft 368 kts 253°
2026-04-22 08:22 7.26583 171.58294 11507 ft 367 kts 253°
2026-04-22 08:22 7.25820 171.55845 10899 ft 366 kts 253°
2026-04-22 08:22 7.25055 171.53425 10624 ft 356 kts 252°
2026-04-22 08:23 7.24309 171.51085 10407 ft 344 kts 252°
2026-04-22 08:23 7.23589 171.48839 10252 ft 330 kts 252°
2026-04-22 08:23 7.22902 171.46701 10107 ft 312 kts 252°
2026-04-22 08:23 7.22250 171.44673 9973 ft 297 kts 252°
2026-04-22 08:24 7.21626 171.42735 9730 ft 287 kts 252°
2026-04-22 08:24 7.21018 171.40845 9394 ft 281 kts 252°
2026-04-22 08:24 7.20420 171.38987 9055 ft 277 kts 252°
2026-04-22 08:24 7.19826 171.37139 8739 ft 278 kts 252°
2026-04-22 08:25 7.19224 171.35268 8421 ft 285 kts 252°
2026-04-22 08:25 7.18605 171.33347 8055 ft 291 kts 252°
2026-04-22 08:25 7.17986 171.31422 7694 ft 287 kts 252°
2026-04-22 08:25 7.17332 171.29392 7320 ft 281 kts 253°
2026-04-22 08:26 7.16777 171.27672 7001 ft 276 kts 253°
2026-04-22 08:26 7.16188 171.25843 6646 ft 274 kts 253°
2026-04-22 08:26 7.15605 171.24032 6281 ft 269 kts 253°
2026-04-22 08:26 7.15035 171.22264 5942 ft 262 kts 253°
2026-04-22 08:27 7.14475 171.20526 5622 ft 262 kts 253°
2026-04-22 08:27 7.13910 171.18770 5319 ft 267 kts 254°
2026-04-22 08:27 7.13327 171.16959 5025 ft 277 kts 253°
2026-04-22 08:27 7.12736 171.15128 4682 ft 272 kts 253°
2026-04-22 08:28 7.12163 171.13353 4371 ft 260 kts 253°
2026-04-22 08:28 7.11617 171.11667 4078 ft 248 kts 253°
2026-04-22 08:28 7.11082 171.10079 3914 ft 230 kts 247°
2026-04-22 08:28 7.10105 171.08900 3779 ft 215 kts 211°
2026-04-22 08:29 7.08743 171.08387 3698 ft 209 kts 186°
2026-04-22 08:29 7.07320 171.08444 3630 ft 202 kts 163°
2026-04-22 08:29 7.05970 171.08809 3563 ft 201 kts 161°
2026-04-22 08:29 7.04622 171.09187 3458 ft 202 kts 161°
2026-04-22 08:30 7.03348 171.09782 3218 ft 202 kts 132°
2026-04-22 08:30 7.02724 171.10955 2975 ft 187 kts 94°
2026-04-22 08:30 7.02794 171.12226 2781 ft 181 kts 75°
2026-04-22 08:30 7.03089 171.13455 2586 ft 179 kts 73°
2026-04-22 08:31 7.03392 171.14648 2361 ft 172 kts 73°
2026-04-22 08:31 7.03681 171.15799 2141 ft 168 kts 73°
2026-04-22 08:31 7.04227 171.17991 1741 ft 148 kts 73°
2026-04-22 08:32 7.04465 171.18946 1510 ft 135 kts 72°
2026-04-22 08:32 7.04690 171.19856 1325 ft 132 kts 72°
2026-04-22 08:32 7.04913 171.20751 1140 ft 133 kts 72°
2026-04-22 08:32 7.05140 171.21668 983 ft 135 kts 74°
2026-04-22 08:33 7.05368 171.22592 796 ft 138 kts 76°
2026-04-22 08:33 7.05597 171.23523 626 ft 137 kts 72°
2026-04-22 08:33 7.05812 171.24432 352 ft 133 kts 71°
2026-04-22 08:33 7.06058 171.25344 140 ft 136 kts 74°
2026-04-22 08:34 7.06271 171.26285 21 ft 140 kts 74°
2026-04-22 08:34 7.06488 171.27155 2 ft 104 kts 77°
2026-04-22 08:34 7.06610 171.27654 0 ft 43 kts 76°
2026-04-22 08:34 7.06642 171.27786 2 ft 11 kts 76°
2026-04-22 08:35 7.06660 171.27862 1 ft 11 kts 77°
2026-04-22 08:35 7.06678 171.27937 0 ft 11 kts 77°
2026-04-22 08:35 7.06694 171.28009 1 ft 10 kts 76°
2026-04-22 08:35 7.06717 171.28074 1 ft 10 kts 44°
2026-04-22 08:36 7.06784 171.28075 2 ft 9 kts 359°
2026-04-22 08:36 7.06823 171.28098 5 ft 5 kts 57°
2026-04-22 08:36 7.06832 171.28127 4 ft 4 kts 76°
2026-04-22 08:36 7.06849 171.28151 5 ft 4 kts 47°
2026-04-22 08:37 7.06854 171.28166 4 ft 2 kts 85°
2026-04-22 08:37 7.06850 171.28176 4 ft 2 kts 117°
2026-04-22 08:37 7.06844 171.28187 4 ft 2 kts 124°
2026-04-22 08:37 7.06840 171.28191 4 ft 0 kts 125°